Time,TemperatureF,DewpointF,PressureIn,WindDirection,WindDirectionDegrees,WindSpeedMPH,WindSpeedGustMPH,Humidity,HourlyPrecipIn,Conditions,Clouds,dailyrainin,SoftwareType,DateUTC
2013-05-05 00:02:00,45.0,37.0,30.15,North,360,16.0,20.0,75,-99.99,,,-99.99,,2013-05-05 05:02:00,
2013-05-05 00:12:00,45.0,37.0,30.15,North,360,12.0,-999.0,75,-99.99,,,-99.99,,2013-05-05 05:12:00,
2013-05-05 00:21:00,45.0,37.0,30.15,North,360,14.0,20.0,75,-99.99,,,-99.99,,2013-05-05 05:21:00,
2013-05-05 00:31:00,45.0,37.0,30.15,North,360,13.0,22.0,75,-99.99,,,-99.99,,2013-05-05 05:31:00,
2013-05-05 00:42:00,45.0,37.0,30.15,North,350,12.0,-999.0,75,-99.99,,,-99.99,,2013-05-05 05:42:00,
2013-05-05 00:51:00,45.0,39.0,30.15,North,360,14.0,17.0,81,-99.99,,,-99.99,,2013-05-05 05:51:00,
2013-05-05 01:01:00,45.0,39.0,30.15,North,360,14.0,17.0,81,-99.99,,,-99.99,,2013-05-05 06:01:00,
2013-05-05 01:12:00,45.0,37.0,30.15,North,350,10.0,-999.0,75,-99.99,,,-99.99,,2013-05-05 06:12:00,
2013-05-05 01:21:00,45.0,37.0,30.15,North,350,15.0,20.0,75,-99.99,,,-99.99,,2013-05-05 06:21:00,
2013-05-05 01:32:00,45.0,39.0,30.15,North,350,14.0,-999.0,81,-99.99,,,-99.99,,2013-05-05 06:32:00,
2013-05-05 01:42:00,45.0,39.0,30.15,North,360,12.0,-999.0,81,-99.99,,,-99.99,,2013-05-05 06:42:00,
2013-05-05 01:51:00,45.0,39.0,30.15,North,350,12.0,-999.0,81,-99.99,,,-99.99,,2013-05-05 06:51:00,
2013-05-05 02:01:00,45.0,39.0,30.15,North,350,12.0,-999.0,81,-99.99,,,-99.99,,2013-05-05 07:01:00,
2013-05-05 02:11:00,45.0,39.0,30.15,North,350,12.0,-999.0,81,-99.99,,,-99.99,,2013-05-05 07:11:00,
2013-05-05 02:21:00,45.0,39.0,30.15,NNW,340,10.0,-999.0,81,-99.99,,,-99.99,,2013-05-05 07:21:00,
2013-05-05 02:32:00,45.0,39.0,30.15,NNW,340,14.0,18.0,81,-99.99,,,-99.99,,2013-05-05 07:32:00,
2013-05-05 02:42:00,45.0,39.0,30.15,NNW,340,13.0,18.0,81,-99.99,,,-99.99,,2013-05-05 07:42:00,
2013-05-05 02:52:00,45.0,39.0,30.15,NNW,330,13.0,-999.0,81,-99.99,,,-99.99,,2013-05-05 07:52:00,
2013-05-05 03:02:00,45.0,39.0,30.15,NNW,330,13.0,-999.0,81,-99.99,,,-99.99,,2013-05-05 08:02:00,
2013-05-05 03:11:00,43.0,39.0,30.14,NNW,340,13.0,-999.0,86,-99.99,,,-99.99,,2013-05-05 08:11:00,
2013-05-05 03:21:00,43.0,39.0,30.15,NNW,330,12.0,-999.0,86,-99.99,,,-99.99,,2013-05-05 08:21:00,
2013-05-05 03:31:00,43.0,39.0,30.15,NNW,330,14.0,-999.0,86,-99.99,,,-99.99,,2013-05-05 08:31:00,
2013-05-05 03:42:00,43.0,39.0,30.15,NNW,340,9.0,-999.0,86,-99.99,,,-99.99,,2013-05-05 08:42:00,
2013-05-05 03:53:00,43.0,39.0,30.15,NNW,340,12.0,-999.0,86,-99.99,,,-99.99,,2013-05-05 08:53:00,
2013-05-05 04:01:00,43.0,39.0,30.15,NNW,340,12.0,-999.0,86,-99.99,,,-99.99,,2013-05-05 09:01:00,
2013-05-05 04:11:00,43.0,39.0,30.15,NNW,340,9.0,-999.0,86,-99.99,,,-99.99,,2013-05-05 09:11:00,
2013-05-05 04:21:00,43.0,39.0,30.15,NNW,340,12.0,-999.0,86,-99.99,,,-99.99,,2013-05-05 09:21:00,
2013-05-05 04:32:00,43.0,39.0,30.15,NNW,340,13.0,-999.0,86,-99.99,,,-99.99,,2013-05-05 09:32:00,
2013-05-05 04:42:00,43.0,39.0,30.15,NNW,340,12.0,-999.0,86,-99.99,,,-99.99,,2013-05-05 09:42:00,
2013-05-05 04:52:00,43.0,39.0,30.16,NNW,340,10.0,-999.0,86,-99.99,,,-99.99,,2013-05-05 09:52:00,
2013-05-05 05:02:00,43.0,39.0,30.16,NNW,340,10.0,-999.0,86,-99.99,,,-99.99,,2013-05-05 10:02:00,
2013-05-05 05:12:00,43.0,39.0,30.16,NNW,340,10.0,-999.0,86,-99.99,,,-99.99,,2013-05-05 10:12:00,
2013-05-05 05:22:00,43.0,39.0,30.16,North,350,12.0,-999.0,86,-99.99,,,-99.99,,2013-05-05 10:22:00,
2013-05-05 05:32:00,43.0,39.0,30.16,NNW,340,9.0,-999.0,86,-99.99,,,-99.99,,2013-05-05 10:32:00,
2013-05-05 05:42:00,43.0,39.0,30.16,NNW,340,12.0,-999.0,86,-99.99,,,-99.99,,2013-05-05 10:42:00,
2013-05-05 05:52:00,43.0,39.0,30.16,NNW,340,12.0,-999.0,86,-99.99,,,-99.99,,2013-05-05 10:52:00,
2013-05-05 06:01:00,43.0,39.0,30.16,NNW,340,12.0,-999.0,86,-99.99,,,-99.99,,2013-05-05 11:01:00,
2013-05-05 06:12:00,43.0,39.0,30.16,NNW,330,8.0,-999.0,86,-99.99,,,-99.99,,2013-05-05 11:12:00,
2013-05-05 06:21:00,43.0,39.0,30.16,NNW,330,13.0,-999.0,86,-99.99,,,-99.99,,2013-05-05 11:21:00,
2013-05-05 06:32:00,43.0,39.0,30.17,NNW,340,12.0,-999.0,86,-99.99,,,-99.99,,2013-05-05 11:32:00,
2013-05-05 06:42:00,43.0,39.0,30.17,NNW,340,10.0,-999.0,86,-99.99,,,-99.99,,2013-05-05 11:42:00,
2013-05-05 06:51:00,43.0,39.0,30.17,NNW,330,10.0,-999.0,86,-99.99,,,-99.99,,2013-05-05 11:51:00,
2013-05-05 07:02:00,43.0,39.0,30.17,NNW,330,10.0,-999.0,86,-99.99,,,-99.99,,2013-05-05 12:02:00,
2013-05-05 07:11:00,43.0,39.0,30.17,NNW,330,9.0,-999.0,86,-99.99,,,-99.99,,2013-05-05 12:11:00,
2013-05-05 07:21:00,45.0,39.0,30.17,NW,320,12.0,16.0,81,-99.99,,,-99.99,,2013-05-05 12:21:00,
2013-05-05 07:32:00,45.0,39.0,30.17,NNW,330,10.0,-999.0,81,-99.99,,,-99.99,,2013-05-05 12:32:00,
2013-05-05 07:42:00,45.0,39.0,30.17,NNW,340,12.0,-999.0,81,-99.99,,,-99.99,,2013-05-05 12:42:00,
2013-05-05 07:52:00,45.0,39.0,30.18,NNW,340,13.0,-999.0,81,-99.99,,,-99.99,,2013-05-05 12:52:00,
2013-05-05 08:01:00,45.0,39.0,30.18,NNW,340,13.0,-999.0,81,-99.99,,,-99.99,,2013-05-05 13:01:00,
2013-05-05 08:11:00,45.0,39.0,30.18,NNW,340,13.0,-999.0,81,-99.99,,,-99.99,,2013-05-05 13:11:00,
2013-05-05 08:21:00,45.0,39.0,30.19,NW,320,12.0,-999.0,81,-99.99,,,-99.99,,2013-05-05 13:21:00,
2013-05-05 08:32:00,45.0,39.0,30.19,NW,320,10.0,-999.0,81,-99.99,,,-99.99,,2013-05-05 13:32:00,
2013-05-05 08:42:00,45.0,39.0,30.19,NW,320,10.0,-999.0,81,-99.99,,,-99.99,,2013-05-05 13:42:00,
2013-05-05 08:52:00,45.0,39.0,30.19,North,350,15.0,-999.0,81,-99.99,,,-99.99,,2013-05-05 13:52:00,
2013-05-05 09:02:00,45.0,39.0,30.19,North,350,15.0,-999.0,81,-99.99,,,-99.99,,2013-05-05 14:02:00,
2013-05-05 09:11:00,45.0,39.0,30.20,North,350,10.0,-999.0,81,-99.99,,,-99.99,,2013-05-05 14:11:00,
2013-05-05 09:21:00,46.0,39.0,30.20,North,350,10.0,-999.0,75,-99.99,,,-99.99,,2013-05-05 14:21:00,
2013-05-05 09:31:00,46.0,39.0,30.20,NNW,340,12.0,-999.0,75,-99.99,,,-99.99,,2013-05-05 14:31:00,
2013-05-05 09:42:00,46.0,39.0,30.20,North,360,9.0,-999.0,75,-99.99,,,-99.99,,2013-05-05 14:42:00,
2013-05-05 09:51:00,46.0,39.0,30.19,North,360,10.0,-999.0,75,-99.99,,,-99.99,,2013-05-05 14:51:00,
2013-05-05 10:02:00,46.0,39.0,30.19,North,360,10.0,-999.0,75,-99.99,,,-99.99,,2013-05-05 15:02:00,
2013-05-05 10:11:00,48.0,41.0,30.19,North,350,12.0,-999.0,76,-99.99,,,-99.99,,2013-05-05 15:11:00,
2013-05-05 10:21:00,48.0,39.0,30.19,North,350,8.0,-999.0,70,-99.99,,,-99.99,,2013-05-05 15:21:00,
2013-05-05 10:33:00,48.0,39.0,30.19,North,360,10.0,-999.0,70,-99.99,,,-99.99,,2013-05-05 15:33:00,
2013-05-05 10:43:00,48.0,41.0,30.19,North,350,8.0,-999.0,76,-99.99,,,-99.99,,2013-05-05 15:43:00,
2013-05-05 10:53:00,50.0,41.0,30.19,NNW,340,9.0,-999.0,71,-99.99,,,-99.99,,2013-05-05 15:53:00,
2013-05-05 11:03:00,50.0,41.0,30.19,NNW,340,9.0,-999.0,71,-99.99,,,-99.99,,2013-05-05 16:03:00,
2013-05-05 11:12:00,52.0,41.0,30.19,NW,310,9.0,-999.0,66,-99.99,,,-99.99,,2013-05-05 16:12:00,
2013-05-05 11:22:00,52.0,41.0,30.19,NNW,330,10.0,-999.0,66,-99.99,,,-99.99,,2013-05-05 16:22:00,
2013-05-05 11:32:00,52.0,41.0,30.19,NNW,330,10.0,-999.0,66,-99.99,,,-99.99,,2013-05-05 16:32:00,
2013-05-05 11:42:00,54.0,41.0,30.19,NNW,330,8.0,-999.0,62,-99.99,,,-99.99,,2013-05-05 16:42:00,
2013-05-05 11:52:00,54.0,43.0,30.19,NW,320,9.0,-999.0,66,-99.99,,,-99.99,,2013-05-05 16:52:00,
2013-05-05 12:02:00,54.0,43.0,30.19,NW,320,9.0,-999.0,66,-99.99,,,-99.99,,2013-05-05 17:02:00,
2013-05-05 12:12:00,55.0,43.0,30.19,NNW,340,9.0,-999.0,62,-99.99,,,-99.99,,2013-05-05 17:12:00,
2013-05-05 12:23:00,55.0,43.0,30.19,NNW,330,9.0,-999.0,62,-99.99,,,-99.99,,2013-05-05 17:23:00,
2013-05-05 12:32:00,55.0,43.0,30.19,NW,310,10.0,-999.0,62,-99.99,,,-99.99,,2013-05-05 17:32:00,
2013-05-05 12:42:00,55.0,43.0,30.18,NW,320,9.0,16.0,62,-99.99,,,-99.99,,2013-05-05 17:42:00,
2013-05-05 12:52:00,55.0,43.0,30.18,NW,320,7.0,17.0,62,-99.99,,,-99.99,,2013-05-05 17:52:00,
2013-05-05 13:01:00,55.0,43.0,30.18,NW,320,7.0,17.0,62,-99.99,,,-99.99,,2013-05-05 18:01:00,
2013-05-05 13:12:00,57.0,43.0,30.18,NNW,340,10.0,16.0,58,-99.99,,,-99.99,,2013-05-05 18:12:00,
2013-05-05 13:21:00,57.0,43.0,30.17,North,350,12.0,-999.0,58,-99.99,,,-99.99,,2013-05-05 18:21:00,
2013-05-05 13:32:00,59.0,45.0,30.17,North,350,10.0,17.0,58,-99.99,,,-99.99,,2013-05-05 18:32:00,
2013-05-05 13:42:00,59.0,45.0,30.17,WNW,300,9.0,17.0,58,-99.99,,,-99.99,,2013-05-05 18:42:00,
2013-05-05 13:51:00,59.0,45.0,30.15,NNW,340,7.0,17.0,58,-99.99,,,-99.99,,2013-05-05 18:51:00,
2013-05-05 14:01:00,59.0,45.0,30.15,NNW,340,7.0,17.0,58,-99.99,,,-99.99,,2013-05-05 19:01:00,
2013-05-05 14:11:00,59.0,45.0,30.15,North,350,8.0,-999.0,58,-99.99,,,-99.99,,2013-05-05 19:11:00,
2013-05-05 14:21:00,61.0,45.0,30.15,NW,320,9.0,-999.0,55,-99.99,,,-99.99,,2013-05-05 19:21:00,
2013-05-05 14:32:00,61.0,45.0,30.14,North,350,7.0,16.0,55,-99.99,,,-99.99,,2013-05-05 19:32:00,
2013-05-05 14:41:00,61.0,45.0,30.14,NW,320,13.0,17.0,55,-99.99,,,-99.99,,2013-05-05 19:41:00,
2013-05-05 14:52:00,61.0,45.0,30.14,NW,320,8.0,-999.0,55,-99.99,,,-99.99,,2013-05-05 19:52:00,
2013-05-05 15:01:00,61.0,45.0,30.14,NW,320,8.0,-999.0,55,-99.99,,,-99.99,,2013-05-05 20:01:00,
2013-05-05 15:11:00,63.0,45.0,30.13,North,10,7.0,-999.0,51,-99.99,,,-99.99,,2013-05-05 20:11:00,
2013-05-05 15:21:00,63.0,45.0,30.13,North,10,7.0,-999.0,51,-99.99,,,-99.99,,2013-05-05 20:21:00,
2013-05-05 15:31:00,64.0,45.0,30.13,NW,320,10.0,-999.0,48,-99.99,,,-99.99,,2013-05-05 20:31:00,
2013-05-05 15:41:00,64.0,45.0,30.13,WNW,300,9.0,16.0,48,-99.99,,,-99.99,,2013-05-05 20:41:00,
2013-05-05 15:52:00,64.0,45.0,30.12,NNW,340,8.0,-999.0,48,-99.99,,,-99.99,,2013-05-05 20:52:00,
2013-05-05 16:01:00,64.0,45.0,30.12,NNW,340,8.0,-999.0,48,-99.99,,,-99.99,,2013-05-05 21:01:00,
2013-05-05 16:11:00,64.0,45.0,30.12,North,350,7.0,-999.0,48,-99.99,,,-99.99,,2013-05-05 21:11:00,
2013-05-05 16:21:00,64.0,45.0,30.11,North,10,7.0,-999.0,48,-99.99,,,-99.99,,2013-05-05 21:21:00,
2013-05-05 16:33:00,64.0,45.0,30.11,NW,320,9.0,-999.0,48,-99.99,,,-99.99,,2013-05-05 21:33:00,
2013-05-05 16:42:00,66.0,45.0,30.11,NNW,340,6.0,-999.0,45,-99.99,,,-99.99,,2013-05-05 21:42:00,
2013-05-05 16:52:00,63.0,45.0,30.10,NNW,340,8.0,-999.0,51,-99.99,,,-99.99,,2013-05-05 21:52:00,
2013-05-05 17:02:00,63.0,45.0,30.10,NNW,340,8.0,-999.0,51,-99.99,,,-99.99,,2013-05-05 22:02:00,
2013-05-05 17:12:00,64.0,46.0,30.10,North,10,6.0,-999.0,51,-99.99,,,-99.99,,2013-05-05 22:12:00,
2013-05-05 17:22:00,64.0,45.0,30.10,NNE,30,6.0,-999.0,48,-99.99,,,-99.99,,2013-05-05 22:22:00,
2013-05-05 17:33:00,64.0,46.0,30.10,NNE,30,7.0,-999.0,51,-99.99,,,-99.99,,2013-05-05 22:33:00,
2013-05-05 17:42:00,64.0,45.0,30.10,NNE,30,5.0,-999.0,48,-99.99,,,-99.99,,2013-05-05 22:42:00,
2013-05-05 17:52:00,64.0,45.0,30.10,North,360,7.0,-999.0,48,-99.99,,,-99.99,,2013-05-05 22:52:00,
2013-05-05 18:02:00,64.0,45.0,30.10,North,360,7.0,-999.0,48,-99.99,,,-99.99,,2013-05-05 23:02:00,
2013-05-05 18:11:00,64.0,45.0,30.09,North,10,6.0,-999.0,48,-99.99,,,-99.99,,2013-05-05 23:11:00,
2013-05-05 18:21:00,63.0,45.0,30.10,NNE,20,6.0,-999.0,51,-99.99,,,-99.99,,2013-05-05 23:21:00,
2013-05-05 18:32:00,63.0,45.0,30.10,North,360,6.0,-999.0,51,-99.99,,,-99.99,,2013-05-05 23:32:00,
2013-05-05 18:42:00,63.0,45.0,30.09,North,360,6.0,-999.0,51,-99.99,,,-99.99,,2013-05-05 23:42:00,
2013-05-05 18:52:00,63.0,45.0,30.09,North,360,7.0,-999.0,51,-99.99,,,-99.99,,2013-05-05 23:52:00,
2013-05-05 19:01:00,63.0,45.0,30.09,North,360,7.0,-999.0,51,-99.99,,,-99.99,,2013-05-06 00:01:00,
2013-05-05 19:11:00,63.0,46.0,30.09,North,10,7.0,-999.0,55,-99.99,,,-99.99,,2013-05-06 00:11:00,
2013-05-05 19:21:00,63.0,45.0,30.09,NNE,20,3.0,-999.0,51,-99.99,,,-99.99,,2013-05-06 00:21:00,
2013-05-05 19:31:00,63.0,46.0,30.09,NNE,20,6.0,-999.0,55,-99.99,,,-99.99,,2013-05-06 00:31:00,
2013-05-05 19:41:00,63.0,46.0,30.09,NNE,20,6.0,-999.0,55,-99.99,,,-99.99,,2013-05-06 00:41:00,
2013-05-05 19:51:00,61.0,46.0,30.09,NNE,20,3.0,-999.0,59,-99.99,,,-99.99,,2013-05-06 00:51:00,
2013-05-05 20:01:00,61.0,46.0,30.09,NNE,20,3.0,-999.0,59,-99.99,,,-99.99,,2013-05-06 01:01:00,
2013-05-05 20:11:00,61.0,46.0,30.09,NNE,20,3.0,-999.0,59,-99.99,,,-99.99,,2013-05-06 01:11:00,
2013-05-05 20:21:00,55.0,46.0,30.09,North,10,5.0,-999.0,71,-99.99,,,-99.99,,2013-05-06 01:21:00,
2013-05-05 20:31:00,55.0,46.0,30.09,North,10,5.0,-999.0,71,-99.99,,,-99.99,,2013-05-06 01:31:00,
2013-05-05 20:41:00,54.0,46.0,30.09,North,10,5.0,-999.0,76,-99.99,,,-99.99,,2013-05-06 01:41:00,
2013-05-05 20:52:00,52.0,46.0,30.10,North,10,5.0,-999.0,81,-99.99,,,-99.99,,2013-05-06 01:52:00,
2013-05-05 21:01:00,52.0,46.0,30.10,North,10,5.0,-999.0,81,-99.99,,,-99.99,,2013-05-06 02:01:00,
2013-05-05 21:12:00,52.0,45.0,30.10,NNE,20,3.0,-999.0,76,-99.99,,,-99.99,,2013-05-06 02:12:00,
2013-05-05 21:21:00,50.0,45.0,30.10,NNE,20,3.0,-999.0,81,-99.99,,,-99.99,,2013-05-06 02:21:00,
2013-05-05 21:32:00,48.0,45.0,30.11,NNE,20,3.0,-999.0,87,-99.99,,,-99.99,,2013-05-06 02:32:00,
2013-05-05 21:42:00,48.0,45.0,30.11,NNE,20,3.0,-999.0,87,-99.99,,,-99.99,,2013-05-06 02:42:00,
2013-05-05 21:51:00,46.0,45.0,30.11,NNE,30,3.0,-999.0,93,-99.99,,,-99.99,,2013-05-06 02:51:00,
2013-05-05 22:02:00,46.0,45.0,30.11,NNE,30,3.0,-999.0,93,-99.99,,,-99.99,,2013-05-06 03:02:00,
2013-05-05 22:11:00,46.0,45.0,30.12,ENE,70,5.0,-999.0,93,-99.99,,,-99.99,,2013-05-06 03:11:00,
2013-05-05 22:22:00,54.0,46.0,30.13,North,0,0.0,-999.0,76,-99.99,,,-99.99,,2013-05-06 03:22:00,
2013-05-05 22:33:00,52.0,46.0,30.13,ENE,70,3.0,-999.0,81,-99.99,,,-99.99,,2013-05-06 03:33:00,
2013-05-05 22:42:00,52.0,46.0,30.13,North,0,0.0,-999.0,81,-99.99,,,-99.99,,2013-05-06 03:42:00,
2013-05-05 22:52:00,48.0,46.0,30.13,North,0,0.0,-999.0,93,-99.99,,,-99.99,,2013-05-06 03:52:00,
2013-05-05 23:02:00,48.0,46.0,30.13,North,0,0.0,-999.0,93,-99.99,,,-99.99,,2013-05-06 04:02:00,
2013-05-05 23:12:00,48.0,46.0,30.14,North,10,3.0,-999.0,93,-99.99,,,-99.99,,2013-05-06 04:12:00,
2013-05-05 23:23:00,48.0,45.0,30.14,North,10,3.0,-999.0,87,-99.99,,,-99.99,,2013-05-06 04:23:00,
2013-05-05 23:32:00,46.0,45.0,30.14,North,10,6.0,-999.0,93,-99.99,,,-99.99,,2013-05-06 04:32:00,
2013-05-05 23:42:00,46.0,45.0,30.14,NNE,20,3.0,-999.0,93,-99.99,,,-99.99,,2013-05-06 04:42:00,
2013-05-05 23:52:00,45.0,43.0,30.14,NNE,30,3.0,-999.0,93,-99.99,,,-99.99,,2013-05-06 04:52:00,